PORT of BREST

Country: France Country: France (FR)
Latitude / Longitude: 48.376655° / -4.4856975° Show on Map Show on Map
Local Time:  UTC +2
UN/LOCODE: FRBES
Vessels in Port: 21
Expected Arrivals: 7

Recent Arrivals & Departures


Vessel Name
Arrival (UTC)
Arrival (LT)
Departure (UTC)
Departure (LT)
Vessel Type: Yachts & Others  COTES DE LA MANCHE 2014-10-22 09:17:00 2014-10-22 11:17:00
Vessel Type: Passenger Vessels  TREBERON 2014-10-22 07:28:00 2014-10-22 09:28:00 2014-10-22 09:09:00 2014-10-22 11:09:00
Vessel Type: Yachts & Others  KERMOOR 2014-10-19 15:00:00 2014-10-19 17:00:00 2014-10-22 08:56:00 2014-10-22 10:56:00
Vessel Type: Yachts & Others  COTES DE LA MANCHE 2014-10-20 18:32:00 2014-10-20 20:32:00 2014-10-22 08:36:00 2014-10-22 10:36:00
Vessel Type: Yachts & Others  TRISKLLS 2014-10-22 08:22:00 2014-10-22 10:22:00
Vessel Type: Tugs, Pilots etc  ABEILLE BOURBON 2014-10-22 08:12:00 2014-10-22 10:12:00
Vessel Type: Tugs, Pilots etc  ALCYON 2014-10-22 06:31:00 2014-10-22 08:31:00 2014-10-22 07:42:00 2014-10-22 09:42:00
Vessel Type: Yachts & Others  FS MUTIN 2014-10-21 13:51:00 2014-10-21 15:51:00 2014-10-22 07:09:00 2014-10-22 09:09:00
Vessel Type: Fishing  KEBELLE 2 2014-10-20 12:26:00 2014-10-20 14:26:00 2014-10-22 06:45:00 2014-10-22 08:45:00
Vessel Type: Passenger Vessels  ARUN 2014-10-22 06:43:00 2014-10-22 08:43:00

Expected Arrivals


Vessel Name
Scheduled Arrival (UTC)
Scheduled Arrival (LT)
Estimated Arrival (UTC)
Estimated Arrival (LT)
Vessel Type: Cargo Vessels  STEINAU 2014-10-22 16:00:00 2014-10-22 18:00:00 2014-10-22 18:48:00 2014-10-22 20:48:00
Vessel Type: Tugs, Pilots etc  SAINT DENIS 2014-10-22 21:00:00 2014-10-22 23:00:00 2014-10-22 17:10:00 2014-10-22 19:10:00
Vessel Type: Tankers  STEN BERGEN 2014-10-24 01:00:00 2014-10-24 03:00:00 2014-10-24 16:49:00 2014-10-24 18:49:00
Vessel Type: Tankers  DAGMAR THERESA 2014-10-24 08:00:00 2014-10-24 10:00:00
Vessel Type: Yachts & Others  LHERMIONE 2014-10-24 16:00:00 2014-10-24 18:00:00 2014-10-22 13:07:00 2014-10-22 15:07:00
Vessel Type: Cargo Vessels  OSTERMARSCH 2014-10-28 08:00:00 2014-10-28 10:00:00 2014-10-27 08:18:00 2014-10-27 10:18:00
Vessel Type: Cargo Vessels  ANDEAN 2014-10-28 11:00:00 2014-10-28 13:00:00 2014-10-30 03:58:00 2014-10-30 05:58:00

Wind Forecast


    
Time (UTC)
Speed
Direction
Temperature
2014-10-22 09:00:00 13 knots 314° 14°C
2014-10-22 12:00:00 13 knots 305° 14°C
2014-10-22 15:00:00 12 knots 296° 14°C
2014-10-22 18:00:00 11 knots 288° 14°C
2014-10-22 21:00:00 10 knots 268° 14°C
2014-10-23 00:00:00 13 knots 250° 14°C
2014-10-23 03:00:00 15 knots 244° 15°C
2014-10-23 06:00:00 15 knots 238° 15°C
2014-10-23 09:00:00 15 knots 237° 15°C
2014-10-23 12:00:00 16 knots 233° 16°C
2014-10-23 15:00:00 14 knots 225° 16°C
2014-10-23 18:00:00 14 knots 214° 16°C
2014-10-23 21:00:00 14 knots 218° 16°C
2014-10-24 00:00:00 14 knots 226° 16°C
2014-10-24 03:00:00 9 knots 225° 16°C
2014-10-24 06:00:00 12 knots 244° 16°C
2014-10-24 09:00:00 12 knots 271° 16°C